[[{"header":{"parameterUnit":"m.s-1","parameterCategory":2,"la1":30.2991,"la2":30.254,"lo1":-89.0895,"lo2":-89.0444,"dy":0.0017,"dx":0.0017,"nx":28,"ny":28,"refTime":"2025-01-20T03:00:00:Z","depth":"0","parameterNumber":2,"parameterNumberName":"U-component_of_CURRENTS"},"data":[0,0,0,0,0,0,0,0,0,0,0,0,0,0,0,0,0,0,0,0,0,0,0,0,0,0,0,0,0,0,0,0,0,0,0,0,0,0,0,0,0,0,0,0,0,0,0,0,0,0,0,0,0,0,0,0,0,0,-0.2376,-0.2376,0,-0.2436,-0.2437,-0.2437,-0.2471,-0.2471,-0.2471,-0.2471,-0.2562,-0.2565,-0.2567,0,0,0,0,0,0,0,0,0,0,0,0,0,-0.2332,-0.2332,-0.2375,-0.2376,-0.2377,-0.2436,-0.2437,-0.2438,-0.2471,-0.2471,-0.2471,-0.2471,-0.2562,-0.2564,-0.2567,0,0,0,0,0,0,0,0,0,0,0,0,0,-0.2368,-0.2333,-0.2375,-0.2401,-0.2403,-0.2436,-0.2437,-0.2438,-0.2471,-0.2471,-0.2471,-0.2471,-0.2561,-0.2564,-0.2568,-0.2587,0,0,-0.2578,-0.258,0,0,0,0,0,0,0,0,-0.2366,-0.2369,-0.2396,-0.2399,-0.2402,-0.2446,-0.2455,-0.2489,-0.2471,-0.2446,-0.2471,-0.2472,-0.2526,-0.2532,-0.2544,-0.2591,-0.2595,-0.2579,-0.2581,-0.2582,-0.2583,0,0,0,0,0,0,0,-0.2363,-0.2367,-0.24,-0.2397,-0.2401,-0.2424,-0.2428,-0.2462,-0.2485,-0.2448,-0.2451,-0.2457,-0.2528,-0.254,-0.2546,-0.2597,-0.2579,-0.2582,-0.2584,-0.2585,-0.2649,-0.2649,0,0,0,0,0,0,-0.2353,-0.2365,-0.2398,-0.2402,-0.2383,-0.2424,-0.2429,-0.2432,-0.2484,-0.2492,-0.2457,-0.2458,-0.2534,-0.2542,-0.2549,-0.2561,-0.2582,-0.2586,-0.2588,-0.265,-0.2649,-0.2649,0,0,0,0,0,0,-0.2351,-0.2355,-0.2395,-0.2384,-0.2391,-0.2424,-0.2427,-0.2433,-0.2446,-0.249,-0.2499,-0.2464,-0.2534,-0.2544,-0.2579,-0.2565,-0.2587,-0.259,-0.265,-0.265,-0.2649,-0.2593,0,0,0,0,0,0,-0.235,-0.2354,-0.2353,-0.2384,-0.2391,-0.2405,-0.2427,-0.2434,-0.245,-0.2452,-0.2499,-0.2508,-0.2535,-0.2573,-0.2582,-0.257,-0.2593,-0.2651,-0.265,-0.2649,-0.2595,-0.259,-0.2586,0,0,0,0,0,-0.2348,-0.2346,-0.2353,-0.2357,-0.2389,-0.2405,-0.2411,-0.2436,-0.245,-0.2449,-0.2487,-0.2506,-0.2574,-0.2576,-0.2587,-0.2575,-0.2651,-0.265,-0.2649,-0.2597,-0.2591,-0.2586,0,0,0,0,0,0,-0.2336,-0.235,-0.2358,-0.2363,-0.2378,-0.241,-0.2416,-0.2434,-0.2463,-0.2469,-0.2511,-0.2522,-0.2542,-0.257,-0.2571,-0.259,-0.2612,-0.2613,-0.2569,-0.2564,-0.2559,-0.2555,-0.2596,0,0,0,0,0,-0.2329,-0.2325,-0.2348,-0.235,-0.2356,-0.2386,-0.2397,-0.2412,-0.2442,-0.2454,-0.2484,-0.2517,-0.2546,-0.2564,-0.259,-0.2611,-0.263,-0.2607,-0.2602,-0.2598,-0.2602,-0.2616,-0.2612,-0.2646,-0.2646,-0.2646,0,0,-0.2324,-0.2333,-0.2331,-0.2346,-0.2361,-0.2368,-0.2393,-0.2404,-0.2411,-0.2461,-0.2477,-0.2504,-0.2548,-0.2564,-0.2575,-0.2587,-0.2597,-0.2597,-0.2593,-0.2599,-0.2614,-0.2611,-0.2608,-0.2645,-0.2645,-0.2645,0,0,-0.2311,-0.2319,-0.2311,-0.2321,-0.2337,-0.2354,-0.2355,-0.2381,-0.2391,-0.2412,-0.2445,-0.2466,-0.251,-0.2533,-0.2555,-0.2544,-0.2571,-0.2547,-0.2526,-0.2538,-0.2536,-0.2534,-0.2544,-0.2544,-0.2547,-0.2547,-0.2547,0,-0.2309,-0.23,-0.2313,-0.2312,-0.2319,-0.2345,-0.2344,-0.236,-0.2391,-0.2402,-0.2408,-0.2466,-0.2495,-0.2526,-0.2516,-0.2533,-0.2546,-0.2542,-0.2532,-0.253,-0.2529,-0.2541,-0.2541,-0.2544,-0.2544,-0.2544,-0.2545,0,-0.2288,-0.2286,-0.2284,-0.2287,-0.2296,-0.2297,-0.232,-0.2327,-0.2342,-0.2361,-0.2384,-0.242,-0.2456,-0.246,-0.2488,-0.2494,-0.2507,-0.2521,-0.2543,-0.2522,-0.2536,-0.2537,-0.254,-0.2541,-0.2542,-0.2542,0,0,-0.2267,-0.2268,-0.2266,-0.2263,-0.2281,-0.2285,-0.2295,-0.231,-0.2324,-0.2339,-0.2357,-0.2387,-0.2405,-0.243,-0.2459,-0.2469,-0.2463,-0.2488,-0.249,-0.2495,-0.249,-0.2548,-0.2555,-0.2475,-0.2475,-0.2475,-0.2499,0,-0.2247,-0.223,-0.2241,-0.2232,-0.2227,-0.2254,-0.2264,-0.2284,-0.2306,-0.2328,-0.2358,-0.2385,-0.2395,-0.2412,-0.2421,-0.2466,-0.2466,-0.2456,-0.2514,-0.2515,-0.2566,-0.2558,-0.2605,-0.2635,-0.25,-0.25,-0.25,0,-0.2219,-0.2211,-0.2193,-0.2201,-0.2203,-0.2205,-0.2225,-0.2238,-0.228,-0.2301,-0.2329,-0.2363,-0.2392,-0.2397,-0.2441,-0.2436,-0.2451,-0.2475,-0.2476,-0.2554,-0.2576,-0.2637,-0.2643,-0.2628,-0.2502,-0.2502,-0.2502,0,-0.2181,-0.2177,-0.2157,-0.2159,-0.2175,-0.2175,-0.2185,-0.2223,-0.2241,-0.2283,-0.2311,-0.2347,-0.2381,-0.24,-0.2455,-0.2444,-0.2506,-0.25,-0.2559,-0.2563,-0.2629,-0.264,-0.2628,-0.2508,-0.2508,-0.2508,-0.2508,0,-0.215,-0.2139,-0.2135,-0.2125,-0.2108,-0.2136,-0.2138,-0.2161,-0.221,-0.2248,-0.229,-0.2342,-0.2384,-0.2435,-0.2456,-0.2528,-0.2505,-0.2559,-0.2577,-0.2611,-0.2619,-0.2632,-0.2618,-0.2509,-0.2509,-0.2509,-0.2509,0,-0.2114,-0.2116,-0.2089,-0.2088,-0.2087,-0.207,-0.2097,-0.211,-0.2166,-0.2221,-0.2237,-0.2337,-0.2427,-0.2472,-0.2531,-0.2549,-0.2584,-0.2618,-0.2659,-0.2681,-0.2726,-0.2708,-0.2633,-0.2596,-0.2683,-0.2685,-0.2687,0,-0.2092,-0.2071,-0.2043,-0.2024,-0.2019,-0.2009,-0.2013,-0.2068,-0.21,-0.2234,-0.2265,-0.2379,-0.2495,-0.261,-0.2683,-0.2744,-0.2651,-0.2768,-0.2756,-0.2741,-0.2733,-0.2615,-0.2579,-0.2811,-0.2813,-0.2815,-0.2817,0,-0.2037,-0.2023,-0.1996,-0.1953,-0.1939,-0.1935,-0.1954,-0.1986,-0.2085,-0.2183,-0.234,-0.2455,-0.2631,-0.2785,-0.2863,-0.2867,-0.2734,-0.2809,-0.2782,-0.2828,-0.271,-0.268,-0.2773,-0.2833,-0.2832,-0.2831,-0.283,-0.2829,-0.1974,-0.1941,-0.1898,-0.1863,-0.1853,-0.1863,-0.1867,-0.196,-0.2056,-0.2267,-0.2387,-0.2656,-0.2838,-0.3011,-0.3007,-0.3023,-0.2892,-0.2953,-0.2931,-0.2807,-0.2779,-0.2913,-0.3003,-0.3003,-0.3002,-0.3002,-0.3001,0,-0.1855,-0.1842,-0.1813,-0.1767,-0.1749,-0.1772,-0.1827,-0.1879,-0.2022,-0.2345,-0.2552,-0.2967,-0.3106,-0.3215,-0.327,-0.3162,-0.3038,-0.305,-0.2894,-0.285,-0.2985,-0.3002,-0.3111,-0.3111,-0.3111,-0.3112,-0.3112,-0.3112,-0.1777,-0.1724,-0.1728,-0.1672,-0.166,-0.1646,-0.1681,-0.1814,-0.2037,-0.25,-0.2899,-0.3239,-0.3398,-0.35,-0.3368,-0.3215,-0.3021,-0.2957,-0.2863,-0.2992,-0.2979,-0.2968,-0.2979,-0.3082,-0.3082,-0.269,-0.2687,-0.2686]},{"header":{"parameterUnit":"m.s-1","parameterCategory":2,"la1":30.2991,"la2":30.254,"lo1":-89.0895,"lo2":-89.0444,"dy":0.0017,"dx":0.0017,"nx":28,"ny":28,"refTime":"2025-01-20T03:00:00:Z","depth":"0","parameterNumber":3,"parameterNumberName":"V-component_of_CURRENTS"},"data":[0,0,0,0,0,0,0,0,0,0,0,0,0,0,0,0,0,0,0,0,0,0,0,0,0,0,0,0,0,0,0,0,0,0,0,0,0,0,0,0,0,0,0,0,0,0,0,0,0,0,0,0,0,0,0,0,0,0,-0.0804,-0.0804,0,-0.0703,-0.0702,-0.07,-0.0625,-0.0625,-0.0625,-0.0625,-0.0542,-0.054,-0.0538,0,0,0,0,0,0,0,0,0,0,0,0,0,-0.0853,-0.0853,-0.0804,-0.0803,-0.0803,-0.0703,-0.0701,-0.07,-0.0625,-0.0625,-0.0625,-0.0625,-0.0543,-0.054,-0.0538,0,0,0,0,0,0,0,0,0,0,0,0,0,-0.0795,-0.0852,-0.0804,-0.0758,-0.0753,-0.0704,-0.0701,-0.0699,-0.0625,-0.0625,-0.0625,-0.0625,-0.0544,-0.0541,-0.0538,-0.0523,0,0,-0.0528,-0.0527,0,0,0,0,0,0,0,0,-0.0799,-0.0793,-0.0765,-0.0761,-0.0755,-0.0681,-0.0689,-0.0643,-0.0625,-0.0668,-0.0625,-0.0625,-0.0594,-0.0587,-0.056,-0.0519,-0.0516,-0.0528,-0.0526,-0.0525,-0.0524,0,0,0,0,0,0,0,-0.0803,-0.0796,-0.0759,-0.0765,-0.0759,-0.0715,-0.0706,-0.0679,-0.063,-0.0664,-0.066,-0.0657,-0.0591,-0.0564,-0.0558,-0.0515,-0.0528,-0.0525,-0.0523,-0.0522,-0.043,-0.043,0,0,0,0,0,0,-0.0831,-0.0801,-0.0762,-0.0756,-0.0783,-0.0715,-0.0705,-0.0701,-0.063,-0.062,-0.0658,-0.0654,-0.0569,-0.0562,-0.0555,-0.053,-0.0525,-0.0522,-0.052,-0.0431,-0.043,-0.043,0,0,0,0,0,0,-0.0832,-0.0828,-0.0766,-0.078,-0.077,-0.0716,-0.071,-0.0699,-0.0675,-0.0625,-0.0615,-0.0646,-0.0568,-0.0559,-0.0516,-0.0527,-0.0521,-0.0518,-0.0432,-0.0431,-0.043,-0.0484,0,0,0,0,0,0,-0.0834,-0.0829,-0.0828,-0.0782,-0.0771,-0.0739,-0.0711,-0.0698,-0.0676,-0.067,-0.0612,-0.0604,-0.0568,-0.0521,-0.0513,-0.0523,-0.0515,-0.0432,-0.0431,-0.043,-0.0483,-0.0485,-0.0487,0,0,0,0,0,-0.0836,-0.0833,-0.0829,-0.0824,-0.0774,-0.0739,-0.0728,-0.0684,-0.0676,-0.0662,-0.0615,-0.0606,-0.0509,-0.0517,-0.0508,-0.0518,-0.0433,-0.0432,-0.043,-0.0482,-0.0484,-0.0487,0,0,0,0,0,0,-0.0852,-0.0825,-0.0819,-0.0808,-0.0781,-0.0729,-0.0712,-0.0692,-0.0643,-0.0638,-0.0593,-0.058,-0.0547,-0.052,-0.0531,-0.0485,-0.0472,-0.0469,-0.0514,-0.0516,-0.0518,-0.053,-0.0513,0,0,0,0,0,-0.0861,-0.085,-0.0822,-0.0814,-0.0805,-0.0764,-0.0744,-0.0719,-0.0677,-0.0654,-0.0615,-0.0571,-0.0534,-0.0516,-0.0475,-0.0452,-0.0436,-0.0452,-0.0454,-0.0456,-0.0458,-0.0436,-0.0437,-0.0425,-0.0425,-0.0425,0,0,-0.0865,-0.085,-0.0843,-0.0817,-0.0791,-0.0774,-0.0749,-0.0725,-0.0706,-0.0656,-0.0613,-0.0577,-0.0527,-0.0492,-0.0477,-0.0473,-0.0451,-0.0454,-0.0456,-0.0457,-0.0435,-0.0436,-0.0437,-0.0424,-0.0425,-0.0425,0,0,-0.0868,-0.0858,-0.085,-0.0832,-0.0807,-0.0782,-0.0783,-0.0738,-0.0712,-0.0673,-0.0632,-0.0599,-0.0541,-0.0506,-0.0483,-0.0472,-0.046,-0.0465,-0.049,-0.0469,-0.0471,-0.0472,-0.0462,-0.0462,-0.047,-0.047,-0.047,0,-0.0878,-0.0865,-0.0842,-0.0833,-0.0821,-0.0793,-0.0784,-0.0753,-0.0697,-0.0681,-0.0667,-0.0582,-0.0547,-0.0509,-0.0502,-0.048,-0.0468,-0.0491,-0.0475,-0.0475,-0.0475,-0.0465,-0.0464,-0.0473,-0.0472,-0.0472,-0.0472,0,-0.0872,-0.0865,-0.086,-0.0841,-0.0824,-0.0812,-0.0782,-0.076,-0.0738,-0.0707,-0.0666,-0.061,-0.0563,-0.0552,-0.0523,-0.0507,-0.0499,-0.0481,-0.0477,-0.048,-0.0469,-0.0467,-0.0476,-0.0475,-0.0474,-0.0474,0,0,-0.0898,-0.0863,-0.0863,-0.086,-0.083,-0.0819,-0.0797,-0.0768,-0.0761,-0.0711,-0.0693,-0.0632,-0.0612,-0.0583,-0.0549,-0.0533,-0.0529,-0.0514,-0.0511,-0.0519,-0.0492,-0.0481,-0.0477,-0.0512,-0.0512,-0.0511,-0.0489,0,-0.0906,-0.089,-0.0869,-0.0862,-0.0858,-0.0831,-0.0816,-0.0788,-0.076,-0.0734,-0.0688,-0.0653,-0.0621,-0.0606,-0.0584,-0.0534,-0.0524,-0.0537,-0.0475,-0.0473,-0.0474,-0.0475,-0.051,-0.0492,-0.0486,-0.0486,-0.0486,0,-0.0918,-0.0905,-0.0894,-0.0882,-0.0879,-0.0871,-0.0854,-0.0834,-0.0794,-0.0773,-0.0736,-0.0697,-0.0653,-0.0633,-0.0563,-0.0573,-0.0541,-0.051,-0.0508,-0.0476,-0.0457,-0.0483,-0.0488,-0.0462,-0.0483,-0.0483,-0.0483,0,-0.0955,-0.0933,-0.0925,-0.0918,-0.0893,-0.0891,-0.0879,-0.0849,-0.0843,-0.0799,-0.0795,-0.0729,-0.0703,-0.0645,-0.0571,-0.057,-0.0502,-0.049,-0.0453,-0.0452,-0.0458,-0.0458,-0.0442,-0.0457,-0.0457,-0.0457,-0.0457,0,-0.0982,-0.0987,-0.0943,-0.0943,-0.0948,-0.0921,-0.0928,-0.0906,-0.0887,-0.0895,-0.0821,-0.0815,-0.0707,-0.0651,-0.0585,-0.0508,-0.051,-0.0459,-0.0443,-0.0478,-0.0479,-0.0436,-0.0427,-0.0456,-0.0456,-0.0456,-0.0457,0,-0.1039,-0.1007,-0.1001,-0.0969,-0.0966,-0.0971,-0.0968,-0.0979,-0.0949,-0.0958,-0.0949,-0.0878,-0.08,-0.0691,-0.0593,-0.0533,-0.0452,-0.0433,-0.0483,-0.0474,-0.0414,-0.0407,-0.0341,-0.0388,-0.0392,-0.0392,-0.0392,0,-0.1076,-0.107,-0.1026,-0.1026,-0.1016,-0.1019,-0.1035,-0.1014,-0.1034,-0.1007,-0.1026,-0.0944,-0.0913,-0.0744,-0.0597,-0.0469,-0.0449,-0.0435,-0.0435,-0.0417,-0.0398,-0.0366,-0.0409,-0.047,-0.0471,-0.0471,-0.0471,0,-0.1138,-0.1105,-0.1085,-0.1078,-0.1088,-0.111,-0.1131,-0.1164,-0.1155,-0.1177,-0.1195,-0.1166,-0.0968,-0.0846,-0.0637,-0.0542,-0.0445,-0.0436,-0.0404,-0.0447,-0.0424,-0.0461,-0.0484,-0.0473,-0.0473,-0.0473,-0.0473,-0.0473,-0.1176,-0.1172,-0.113,-0.1134,-0.1149,-0.121,-0.1273,-0.1317,-0.1384,-0.1476,-0.1376,-0.1389,-0.1112,-0.0819,-0.0681,-0.0443,-0.0454,-0.042,-0.0411,-0.0378,-0.0427,-0.0456,-0.043,-0.043,-0.043,-0.0429,-0.0429,0,-0.1221,-0.1198,-0.12,-0.1208,-0.1259,-0.1253,-0.1349,-0.1455,-0.1589,-0.1655,-0.1696,-0.1509,-0.1254,-0.0942,-0.0547,-0.0441,-0.0424,-0.0399,-0.038,-0.0429,-0.0445,-0.0453,-0.0447,-0.0447,-0.0448,-0.0448,-0.0448,-0.0448,-0.1229,-0.1236,-0.1234,-0.1311,-0.1337,-0.147,-0.1552,-0.1712,-0.181,-0.196,-0.1939,-0.1893,-0.1373,-0.0697,-0.0375,-0.0349,-0.0373,-0.0345,-0.0358,-0.0372,-0.0374,-0.0375,-0.038,-0.0359,-0.0359,-0.0376,-0.0376,-0.0376]}],[{"header":{"parameterUnit":"m.s-1","parameterCategory":2,"la1":30.2991,"la2":30.254,"lo1":-89.0895,"lo2":-89.0444,"dy":0.0017,"dx":0.0017,"nx":28,"ny":28,"refTime":"2025-01-20T03:00:00:Z","depth":"2","parameterNumber":2,"parameterNumberName":"U-component_of_CURRENTS"},"data":[0,0,0,0,0,0,0,0,0,0,0,0,0,0,0,0,0,0,0,0,0,0,0,0,0,0,0,0,0,0,0,0,0,0,0,0,0,0,0,0,0,0,0,0,0,0,0,0,0,0,0,0,0,0,0,0,0,0,-0.235,-0.2351,0,-0.2413,-0.2414,-0.2414,-0.2451,-0.2451,-0.2451,-0.2451,-0.2547,-0.2549,-0.2552,0,0,0,0,0,0,0,0,0,0,0,0,0,-0.2305,-0.2306,-0.235,-0.2351,-0.2352,-0.2413,-0.2414,-0.2415,-0.2451,-0.2451,-0.2451,-0.2451,-0.2546,-0.2549,-0.2552,0,0,0,0,0,0,0,0,0,0,0,0,0,-0.2343,-0.2306,-0.235,-0.2377,-0.238,-0.2412,-0.2414,-0.2415,-0.2451,-0.2451,-0.2451,-0.2451,-0.2545,-0.2549,-0.2552,-0.2572,0,0,-0.2564,-0.2565,0,0,0,0,0,0,0,0,-0.234,-0.2344,-0.2372,-0.2375,-0.2378,-0.2424,-0.2433,-0.2469,-0.2451,-0.2424,-0.2451,-0.2451,-0.2508,-0.2515,-0.2527,-0.2577,-0.2581,-0.2564,-0.2566,-0.2568,-0.2569,0,0,0,0,0,0,0,-0.2338,-0.2342,-0.2376,-0.2373,-0.2376,-0.24,-0.2405,-0.244,-0.2466,-0.2427,-0.2429,-0.2435,-0.251,-0.2523,-0.2529,-0.2582,-0.2564,-0.2567,-0.2569,-0.2571,-0.2637,-0.2637,0,0,0,0,0,0,-0.2326,-0.2339,-0.2374,-0.2377,-0.2359,-0.2401,-0.2407,-0.2409,-0.2465,-0.2473,-0.2435,-0.2437,-0.2517,-0.2525,-0.2533,-0.2545,-0.2568,-0.2571,-0.2573,-0.2638,-0.2637,-0.2637,0,0,0,0,0,0,-0.2325,-0.2329,-0.2371,-0.236,-0.2367,-0.2401,-0.2404,-0.2411,-0.2425,-0.2471,-0.248,-0.2443,-0.2517,-0.2528,-0.2564,-0.2549,-0.2573,-0.2576,-0.2638,-0.2638,-0.2637,-0.2579,0,0,0,0,0,0,-0.2323,-0.2328,-0.2328,-0.2359,-0.2367,-0.2381,-0.2404,-0.2412,-0.2428,-0.2431,-0.248,-0.2489,-0.2518,-0.2558,-0.2567,-0.2555,-0.2579,-0.2639,-0.2638,-0.2637,-0.2581,-0.2576,-0.2572,0,0,0,0,0,-0.2322,-0.232,-0.2327,-0.2331,-0.2365,-0.2381,-0.2387,-0.2413,-0.2428,-0.2428,-0.2467,-0.2488,-0.2559,-0.2561,-0.2572,-0.256,-0.2639,-0.2638,-0.2637,-0.2583,-0.2577,-0.2572,0,0,0,0,0,0,-0.231,-0.2325,-0.2333,-0.2339,-0.2353,-0.2387,-0.2393,-0.2411,-0.2442,-0.2448,-0.2493,-0.2504,-0.2525,-0.2554,-0.2556,-0.2576,-0.2598,-0.2599,-0.2553,-0.2548,-0.2543,-0.254,-0.2582,0,0,0,0,0,-0.2304,-0.23,-0.2323,-0.2326,-0.2332,-0.2362,-0.2374,-0.2389,-0.242,-0.2434,-0.2464,-0.25,-0.253,-0.2548,-0.2576,-0.2597,-0.2617,-0.2593,-0.2588,-0.2584,-0.2588,-0.2601,-0.2598,-0.2633,-0.2633,-0.2633,0,0,-0.2299,-0.2308,-0.2306,-0.2322,-0.2338,-0.2345,-0.2369,-0.2382,-0.2389,-0.244,-0.2458,-0.2486,-0.2531,-0.2548,-0.2559,-0.2572,-0.2582,-0.2583,-0.2579,-0.2585,-0.2599,-0.2596,-0.2593,-0.2633,-0.2633,-0.2633,0,0,-0.2287,-0.2296,-0.2288,-0.2298,-0.2315,-0.2332,-0.2333,-0.2358,-0.237,-0.2391,-0.2425,-0.2447,-0.2493,-0.2516,-0.2538,-0.2527,-0.2555,-0.253,-0.2509,-0.252,-0.2517,-0.2515,-0.2526,-0.2525,-0.253,-0.253,-0.253,0,-0.2284,-0.2277,-0.229,-0.229,-0.2296,-0.2323,-0.2322,-0.2338,-0.2371,-0.2381,-0.2388,-0.2447,-0.2477,-0.2508,-0.2499,-0.2516,-0.2529,-0.2525,-0.2514,-0.2512,-0.2511,-0.2522,-0.2522,-0.2527,-0.2527,-0.2528,-0.2528,0,-0.2265,-0.2264,-0.2262,-0.2266,-0.2275,-0.2276,-0.2298,-0.2306,-0.2321,-0.2341,-0.2363,-0.2401,-0.2437,-0.2441,-0.247,-0.2475,-0.2488,-0.2502,-0.2526,-0.2503,-0.2517,-0.2518,-0.2523,-0.2524,-0.2525,-0.2525,0,0,-0.2245,-0.2247,-0.2245,-0.2242,-0.226,-0.2264,-0.2274,-0.229,-0.2304,-0.2319,-0.2337,-0.2367,-0.2385,-0.241,-0.2439,-0.2449,-0.2442,-0.2468,-0.247,-0.2475,-0.2467,-0.2524,-0.2531,-0.2453,-0.2453,-0.2453,-0.2476,0,-0.2225,-0.221,-0.2221,-0.2213,-0.2207,-0.2234,-0.2244,-0.2264,-0.2286,-0.2308,-0.2337,-0.2365,-0.2375,-0.2392,-0.24,-0.2445,-0.2444,-0.2435,-0.2492,-0.2494,-0.2544,-0.2534,-0.2233,-0.2234,-0.2478,-0.2478,-0.2478,0,-0.2198,-0.2191,-0.2174,-0.2182,-0.2184,-0.2186,-0.2207,-0.222,-0.2262,-0.2282,-0.2309,-0.2344,-0.2372,-0.2377,-0.242,-0.2414,-0.2429,-0.2452,-0.2454,-0.2532,-0.2554,-0.2298,-0.2227,-0.248,-0.248,-0.248,-0.248,0,-0.216,-0.2158,-0.2138,-0.214,-0.2157,-0.2157,-0.2167,-0.2205,-0.2223,-0.2265,-0.2293,-0.2328,-0.2362,-0.2379,-0.2433,-0.2423,-0.2483,-0.2476,-0.2534,-0.2538,-0.2309,-0.2294,-0.2484,-0.2484,-0.2484,-0.2483,-0.2483,0,-0.2129,-0.2119,-0.2116,-0.2107,-0.209,-0.2119,-0.2121,-0.2144,-0.2193,-0.2231,-0.2272,-0.2324,-0.2364,-0.2415,-0.2434,-0.2504,-0.2482,-0.2534,-0.2551,-0.2282,-0.2266,-0.2505,-0.2507,-0.2484,-0.2484,-0.2484,-0.2484,0,-0.2093,-0.2096,-0.207,-0.207,-0.207,-0.2053,-0.2081,-0.2094,-0.215,-0.2204,-0.222,-0.2319,-0.2407,-0.2452,-0.2509,-0.2526,-0.2571,-0.2592,-0.2286,-0.2269,-0.261,-0.2609,-0.2651,-0.2654,-0.2656,-0.2657,-0.2659,0,-0.2071,-0.2051,-0.2025,-0.2006,-0.2002,-0.1993,-0.1998,-0.2052,-0.2084,-0.2217,-0.2248,-0.236,-0.2456,-0.2569,-0.2524,-0.255,-0.2645,-0.2379,-0.2318,-0.2617,-0.2629,-0.2624,-0.2621,-0.1964,-0.1959,-0.1956,-0.1953,0,-0.2016,-0.2003,-0.1976,-0.1935,-0.1922,-0.1919,-0.1939,-0.1971,-0.2069,-0.2149,-0.2305,-0.24,-0.2466,-0.2384,-0.2416,-0.2394,-0.2353,-0.2318,-0.2663,-0.2016,-0.1984,-0.1992,-0.2007,-0.1921,-0.1924,-0.1926,-0.1928,-0.1929,-0.1953,-0.192,-0.1878,-0.1845,-0.1836,-0.1847,-0.1851,-0.1883,-0.1954,-0.2034,-0.2219,-0.227,-0.2254,-0.2173,-0.2116,-0.2055,-0.2223,-0.2149,-0.2151,-0.216,-0.2124,-0.2102,-0.2053,-0.2056,-0.206,-0.2063,-0.2065,0,-0.1816,-0.1821,-0.1793,-0.1748,-0.1708,-0.1756,-0.1811,-0.1775,-0.1818,-0.1903,-0.1989,-0.1852,-0.1795,-0.183,-0.1639,-0.167,-0.1543,-0.1674,-0.1458,-0.1491,-0.152,-0.1445,-0.1197,-0.1195,-0.1193,-0.1192,0,0,-0.1733,-0.1669,-0.1673,-0.1606,-0.1614,-0.1555,-0.1588,-0.1559,-0.1572,-0.1563,-0.1583,-0.1665,-0.1765,-0.145,-0.1383,-0.128,-0.1377,-0.1227,-0.1907,-0.1682,-0.1709,-0.1768,-0.169,0,0,0,0,0]},{"header":{"parameterUnit":"m.s-1","parameterCategory":2,"la1":30.2991,"la2":30.254,"lo1":-89.0895,"lo2":-89.0444,"dy":0.0017,"dx":0.0017,"nx":28,"ny":28,"refTime":"2025-01-20T03:00:00:Z","depth":"2","parameterNumber":3,"parameterNumberName":"V-component_of_CURRENTS"},"data":[0,0,0,0,0,0,0,0,0,0,0,0,0,0,0,0,0,0,0,0,0,0,0,0,0,0,0,0,0,0,0,0,0,0,0,0,0,0,0,0,0,0,0,0,0,0,0,0,0,0,0,0,0,0,0,0,0,0,-0.0746,-0.0746,0,-0.0649,-0.0647,-0.0646,-0.0575,-0.0575,-0.0575,-0.0575,-0.0497,-0.0495,-0.0493,0,0,0,0,0,0,0,0,0,0,0,0,0,-0.0792,-0.0792,-0.0746,-0.0746,-0.0745,-0.0649,-0.0647,-0.0645,-0.0575,-0.0575,-0.0575,-0.0575,-0.0498,-0.0496,-0.0493,0,0,0,0,0,0,0,0,0,0,0,0,0,-0.0737,-0.0792,-0.0746,-0.0702,-0.0698,-0.0649,-0.0647,-0.0645,-0.0575,-0.0575,-0.0575,-0.0575,-0.0499,-0.0496,-0.0493,-0.0478,0,0,-0.0484,-0.0483,0,0,0,0,0,0,0,0,-0.074,-0.0734,-0.071,-0.0705,-0.07,-0.0629,-0.0635,-0.0592,-0.0576,-0.0616,-0.0575,-0.0575,-0.0547,-0.054,-0.0514,-0.0474,-0.0471,-0.0484,-0.0482,-0.0481,-0.048,0,0,0,0,0,0,0,-0.0744,-0.0738,-0.0702,-0.0709,-0.0703,-0.066,-0.0652,-0.0625,-0.058,-0.0613,-0.0609,-0.0606,-0.0543,-0.0517,-0.0512,-0.047,-0.0484,-0.0481,-0.0479,-0.0478,-0.0388,-0.0387,0,0,0,0,0,0,-0.0771,-0.0742,-0.0706,-0.07,-0.0726,-0.066,-0.0651,-0.0647,-0.058,-0.057,-0.0606,-0.0603,-0.0522,-0.0515,-0.0509,-0.0485,-0.0481,-0.0478,-0.0476,-0.0388,-0.0388,-0.0387,0,0,0,0,0,0,-0.0772,-0.0768,-0.071,-0.0723,-0.0713,-0.0661,-0.0656,-0.0646,-0.0623,-0.0576,-0.0566,-0.0596,-0.0522,-0.0513,-0.0471,-0.0482,-0.0477,-0.0474,-0.0389,-0.0388,-0.0387,-0.0439,0,0,0,0,0,0,-0.0774,-0.0769,-0.077,-0.0725,-0.0713,-0.0683,-0.0657,-0.0644,-0.0624,-0.0619,-0.0564,-0.0555,-0.0521,-0.0476,-0.0468,-0.0478,-0.0472,-0.039,-0.0389,-0.0388,-0.0438,-0.044,-0.0442,0,0,0,0,0,-0.0776,-0.0774,-0.077,-0.0766,-0.0718,-0.0683,-0.0673,-0.0631,-0.0624,-0.061,-0.0565,-0.0557,-0.0464,-0.0473,-0.0464,-0.0473,-0.0391,-0.0389,-0.0388,-0.0438,-0.044,-0.0442,0,0,0,0,0,0,-0.0792,-0.0766,-0.0761,-0.0752,-0.0725,-0.0674,-0.0658,-0.0639,-0.0592,-0.0588,-0.0545,-0.0533,-0.0501,-0.0475,-0.0486,-0.0441,-0.0428,-0.0425,-0.0469,-0.0471,-0.0473,-0.0485,-0.0469,0,0,0,0,0,-0.0801,-0.0792,-0.0764,-0.0757,-0.0749,-0.0709,-0.069,-0.0666,-0.0625,-0.0603,-0.0565,-0.0524,-0.0487,-0.047,-0.043,-0.0408,-0.0392,-0.0407,-0.0409,-0.0411,-0.0413,-0.0391,-0.0392,-0.0382,-0.0382,-0.0383,0,0,-0.0805,-0.0792,-0.0785,-0.076,-0.0736,-0.0719,-0.0695,-0.0671,-0.0653,-0.0605,-0.0564,-0.0528,-0.048,-0.0446,-0.0432,-0.0428,-0.0406,-0.0409,-0.0412,-0.0413,-0.0389,-0.0391,-0.0392,-0.0382,-0.0382,-0.0382,0,0,-0.081,-0.0801,-0.0795,-0.0777,-0.0753,-0.0727,-0.0729,-0.0684,-0.066,-0.0622,-0.0582,-0.055,-0.0494,-0.0459,-0.0436,-0.0425,-0.0413,-0.0419,-0.0443,-0.0421,-0.0422,-0.0423,-0.0414,-0.0413,-0.0423,-0.0423,-0.0423,0,-0.082,-0.0809,-0.0787,-0.0778,-0.0767,-0.0739,-0.0731,-0.07,-0.0645,-0.063,-0.0616,-0.0533,-0.0499,-0.0461,-0.0454,-0.0433,-0.0421,-0.0444,-0.0426,-0.0426,-0.0426,-0.0416,-0.0415,-0.0426,-0.0425,-0.0425,-0.0425,0,-0.0816,-0.081,-0.0806,-0.0788,-0.0771,-0.0759,-0.0729,-0.0708,-0.0686,-0.0656,-0.0615,-0.056,-0.0514,-0.0502,-0.0474,-0.0457,-0.045,-0.0432,-0.0429,-0.0431,-0.042,-0.0418,-0.0429,-0.0428,-0.0427,-0.0427,0,0,-0.0843,-0.0809,-0.081,-0.0808,-0.0778,-0.0767,-0.0745,-0.0716,-0.0709,-0.066,-0.0642,-0.0581,-0.0561,-0.0533,-0.0499,-0.0482,-0.0477,-0.0464,-0.0461,-0.0469,-0.044,-0.0429,-0.0426,-0.046,-0.046,-0.0459,-0.0437,0,-0.0851,-0.0838,-0.0817,-0.0811,-0.0807,-0.078,-0.0765,-0.0737,-0.0709,-0.0682,-0.0636,-0.0602,-0.057,-0.0556,-0.0532,-0.0482,-0.0472,-0.0485,-0.0423,-0.0422,-0.0424,-0.0423,-0.0298,-0.0266,-0.0434,-0.0434,-0.0434,0,-0.0865,-0.0852,-0.0843,-0.0831,-0.0829,-0.0821,-0.0804,-0.0784,-0.0744,-0.0723,-0.0685,-0.0646,-0.0602,-0.0582,-0.0511,-0.0521,-0.0489,-0.0457,-0.0455,-0.0425,-0.0406,-0.0286,-0.0256,-0.043,-0.043,-0.0431,-0.0431,0,-0.0901,-0.0881,-0.0875,-0.0868,-0.0843,-0.0842,-0.083,-0.0799,-0.0793,-0.0749,-0.0746,-0.0679,-0.0653,-0.0594,-0.0519,-0.0519,-0.0449,-0.0437,-0.0399,-0.0399,-0.0269,-0.0258,-0.0402,-0.0402,-0.0402,-0.0402,-0.0402,0,-0.0928,-0.0934,-0.0893,-0.0893,-0.0899,-0.0873,-0.088,-0.0858,-0.0838,-0.0846,-0.0772,-0.0766,-0.0657,-0.06,-0.0534,-0.0456,-0.0457,-0.0405,-0.039,-0.0284,-0.0275,-0.0394,-0.0393,-0.0401,-0.0402,-0.0402,-0.0402,0,-0.0984,-0.0954,-0.0949,-0.0919,-0.0918,-0.0922,-0.0921,-0.0932,-0.0902,-0.0911,-0.0902,-0.083,-0.0751,-0.0641,-0.0542,-0.0481,-0.0402,-0.038,-0.027,-0.0243,-0.0368,-0.037,-0.034,-0.034,-0.0339,-0.0339,-0.0338,0,-0.102,-0.1015,-0.0974,-0.0975,-0.0967,-0.0972,-0.0988,-0.0967,-0.0987,-0.096,-0.0979,-0.0896,-0.0852,-0.0682,-0.0468,-0.032,-0.0401,-0.0215,-0.0193,-0.0372,-0.0361,-0.0364,-0.0366,-0.0039,-0.0037,-0.0034,-0.0033,0,-0.1081,-0.1049,-0.103,-0.1027,-0.1038,-0.1062,-0.1084,-0.1117,-0.1108,-0.1113,-0.1131,-0.1088,-0.0833,-0.0582,-0.0347,-0.0258,-0.022,-0.017,-0.0357,-0.009,-0.0091,-0.0079,-0.0091,-0.0012,-0.0014,-0.0016,-0.0017,-0.0018,-0.1118,-0.1113,-0.1074,-0.1081,-0.1099,-0.1162,-0.1225,-0.1202,-0.1244,-0.1224,-0.1206,-0.1081,-0.0804,-0.0398,-0.0199,-0.0,-0.0059,-0.0045,-0.0051,-0.0059,-0.0043,-0.0045,0.0045,0.0043,0.0042,0.0041,0.0039,0,-0.112,-0.1138,-0.1141,-0.1153,-0.1163,-0.1204,-0.1302,-0.1301,-0.1325,-0.125,-0.1198,-0.0916,-0.0575,-0.0332,0.0078,0.0235,0.0269,0.0186,0.0231,0.0212,0.0195,0.0223,0.0382,0.0383,0.0383,0.0384,0,0,-0.1117,-0.1102,-0.1098,-0.1161,-0.123,-0.1292,-0.1374,-0.1362,-0.1303,-0.1223,-0.1119,-0.0893,-0.0584,-0.0266,0.0018,0.021,0.0135,0.0216,-0.0058,-0.0051,-0.0072,0.0084,0.0109,0,0,0,0,0]}],[{"header":{"parameterUnit":"m.s-1","parameterCategory":2,"la1":30.2991,"la2":30.254,"lo1":-89.0895,"lo2":-89.0444,"dy":0.0017,"dx":0.0017,"nx":28,"ny":28,"refTime":"2025-01-20T03:00:00:Z","depth":"4","parameterNumber":2,"parameterNumberName":"U-component_of_CURRENTS"},"data":[0,0,0,0,0,0,0,0,0,0,0,0,0,0,0,0,0,0,0,0,0,0,0,0,0,0,0,0,0,0,0,0,0,0,0,0,0,0,0,0,0,0,0,0,0,0,0,0,0,0,0,0,0,0,0,0,0,0,-0.1276,-0.1276,0,-0.1253,-0.1253,-0.1252,-0.1235,-0.1235,-0.1235,-0.1235,-0.1179,-0.1177,-0.1176,0,0,0,0,0,0,0,0,0,0,0,0,0,-0.125,-0.1251,-0.1276,-0.1276,-0.1276,-0.1253,-0.1253,-0.1252,-0.1235,-0.1235,-0.1235,-0.1235,-0.1179,-0.1178,-0.1176,0,0,0,0,0,0,0,0,0,0,0,0,0,-0.1246,-0.1251,-0.1276,-0.1265,-0.1264,-0.1253,-0.1253,-0.1252,-0.1235,-0.1235,-0.1235,-0.1235,-0.118,-0.1178,-0.1176,-0.1164,0,0,-0.1169,-0.1168,0,0,0,0,0,0,0,0,-0.1247,-0.1247,-0.1267,-0.1266,-0.1265,-0.1248,-0.1223,-0.1221,-0.1235,-0.1245,-0.1235,-0.1235,-0.12,-0.1196,-0.119,-0.1161,-0.1159,-0.1169,-0.1167,-0.1167,-0.1166,0,0,0,0,0,0,0,-0.1247,-0.1248,-0.1266,-0.1267,-0.1266,-0.1243,-0.1242,-0.1222,-0.1221,-0.1244,-0.1243,-0.1242,-0.1199,-0.1193,-0.1189,-0.1158,-0.1169,-0.1167,-0.1166,-0.1165,-0.1181,-0.1183,0,0,0,0,0,0,-0.1256,-0.1249,-0.1267,-0.1265,-0.1257,-0.1244,-0.1243,-0.1252,-0.1222,-0.1218,-0.1242,-0.1242,-0.1196,-0.1191,-0.1187,-0.1212,-0.1167,-0.1165,-0.1163,-0.1179,-0.1181,-0.1183,0,0,0,0,0,0,-0.1255,-0.1258,-0.1267,-0.1256,-0.1256,-0.1245,-0.1255,-0.1252,-0.1264,-0.1222,-0.1217,-0.1259,-0.1196,-0.119,-0.1197,-0.1208,-0.1164,-0.1162,-0.1177,-0.118,-0.1182,-0.1235,0,0,0,0,0,0,-0.1255,-0.1258,-0.1278,-0.1258,-0.1257,-0.1268,-0.1255,-0.1252,-0.1263,-0.1262,-0.1234,-0.1228,-0.1196,-0.12,-0.1195,-0.1204,-0.116,-0.1175,-0.1178,-0.1181,-0.1231,-0.1239,-0.1246,0,0,0,0,0,-0.1254,-0.1271,-0.128,-0.1282,-0.1283,-0.1269,-0.1266,-0.1256,-0.1264,-0.1268,-0.1265,-0.1229,-0.1217,-0.12,-0.1193,-0.1202,-0.1173,-0.1177,-0.1181,-0.1228,-0.1237,-0.1246,0,0,0,0,0,0,-0.1262,-0.127,-0.1279,-0.1298,-0.1291,-0.1266,-0.1274,-0.1272,-0.1273,-0.1282,-0.1248,-0.1242,-0.125,-0.1229,-0.1212,-0.1221,-0.119,-0.1193,-0.1228,-0.1237,-0.1244,-0.1243,-0.1158,0,0,0,0,0,-0.1278,-0.13,-0.1293,-0.131,-0.1311,-0.1302,-0.1302,-0.1296,-0.1289,-0.1291,-0.1275,-0.1267,-0.1258,-0.1252,-0.1238,-0.1242,-0.1232,-0.1247,-0.1254,-0.1261,-0.1258,-0.1269,-0.1277,-0.1196,-0.1196,-0.1196,0,0,-0.1287,-0.1295,-0.1308,-0.1315,-0.1313,-0.1313,-0.1301,-0.1307,-0.1312,-0.1284,-0.1298,-0.1291,-0.1268,-0.1272,-0.1274,-0.1256,-0.1283,-0.1265,-0.1271,-0.1264,-0.1274,-0.1282,-0.1289,-0.1199,-0.1198,-0.1198,0,0,-0.1296,-0.1324,-0.1338,-0.1339,-0.1344,-0.1337,-0.1346,-0.1339,-0.1344,-0.1355,-0.1343,-0.1352,-0.1335,-0.1322,-0.1312,-0.1356,-0.1324,-0.1356,-0.1384,-0.1396,-0.1402,-0.1407,-0.1418,-0.1424,-0.1356,-0.1357,-0.1357,0,-0.1306,-0.1324,-0.1337,-0.1343,-0.1347,-0.1353,-0.1356,-0.1361,-0.136,-0.1368,-0.1368,-0.1372,-0.1356,-0.1358,-0.1376,-0.1369,-0.1373,-0.1347,-0.1404,-0.1409,-0.1413,-0.1423,-0.1428,-0.136,-0.1359,-0.1359,-0.1359,0,-0.1311,-0.1334,-0.134,-0.1357,-0.1364,-0.1369,-0.1375,-0.1393,-0.1409,-0.1409,-0.143,-0.1423,-0.1421,-0.1424,-0.141,-0.1435,-0.1428,-0.1412,-0.1376,-0.1424,-0.1432,-0.1437,-0.1364,-0.1363,-0.1362,-0.1361,0,0,-0.1295,-0.1338,-0.1341,-0.1352,-0.1373,-0.1372,-0.1399,-0.1411,-0.1432,-0.1446,-0.1467,-0.147,-0.1476,-0.1468,-0.146,-0.1473,-0.1515,-0.1461,-0.1461,-0.1463,-0.1547,-0.1456,-0.1452,-0.1511,-0.1512,-0.1513,-0.1543,0,-0.1289,-0.1311,-0.1335,-0.1352,-0.1356,-0.1384,-0.1405,-0.1426,-0.1448,-0.1474,-0.1483,-0.1498,-0.1489,-0.1498,-0.1512,-0.1511,-0.1529,-0.1508,-0.1507,-0.1507,-0.1412,-0.1454,-0.1516,-0.1547,-0.1548,-0.1549,-0.1549,0,-0.1266,-0.1288,-0.1312,-0.135,-0.1357,-0.1374,-0.1414,-0.1434,-0.1475,-0.1496,-0.1521,-0.1531,-0.1554,-0.1544,-0.1567,-0.1556,-0.1559,-0.156,-0.156,-0.1455,-0.1424,-0.1487,-0.1558,-0.1557,-0.1556,-0.1556,-0.1555,0,-0.1221,-0.1262,-0.1287,-0.1298,-0.1346,-0.1368,-0.1396,-0.144,-0.1461,-0.1513,-0.1539,-0.1564,-0.1585,-0.1593,-0.1599,-0.1589,-0.1624,-0.1605,-0.1528,-0.1522,-0.157,-0.1564,-0.1629,-0.1629,-0.1628,-0.1628,-0.1628,0,-0.118,-0.1193,-0.1273,-0.128,-0.1305,-0.1351,-0.1383,-0.1417,-0.1472,-0.1501,-0.1547,-0.1571,-0.1602,-0.1623,-0.1618,-0.1585,-0.1639,-0.1536,-0.1523,-0.1595,-0.1591,-0.1574,-0.1568,-0.163,-0.1629,-0.1629,-0.1629,0,-0.1097,-0.116,-0.1183,-0.1257,-0.128,-0.1294,-0.1363,-0.1384,-0.1454,-0.1496,-0.1515,-0.1584,-0.1612,-0.1632,-0.1652,-0.1599,-0.1582,-0.1561,-0.1647,-0.1638,-0.1469,-0.1465,-0.1468,-0.1465,-0.1462,-0.146,-0.1459,0,-0.104,-0.1056,-0.1151,-0.1175,-0.1206,-0.1247,-0.1274,-0.1353,-0.1381,-0.1492,-0.1503,-0.1569,-0.1603,-0.1557,-0.1587,-0.1566,-0.1549,-0.1526,-0.1485,-0.1465,-0.1453,-0.1453,-0.1452,-0.1455,-0.1454,-0.1453,-0.1453,0,-0.092,-0.0985,-0.1015,-0.1085,-0.1125,-0.116,-0.1213,-0.1227,-0.1329,-0.1412,-0.1453,-0.1468,-0.1503,-0.1505,-0.1501,-0.1485,-0.1526,-0.1499,-0.1504,-0.1465,-0.1449,-0.1439,-0.1441,-0.1444,-0.1445,-0.1446,-0.1446,0,-0.0828,-0.0828,-0.0908,-0.0956,-0.1028,-0.1061,-0.11,-0.1148,-0.1191,-0.1329,-0.1344,-0.1423,-0.1501,-0.1464,-0.1461,-0.1435,-0.1407,-0.1347,-0.1359,-0.1369,-0.1318,-0.1282,-0.1217,0,0,0,0,0,-0.0714,-0.0718,-0.0767,-0.0838,-0.0932,-0.0973,-0.1056,-0.1106,-0.1219,-0.1217,-0.1279,-0.1311,-0.132,-0.1356,-0.1305,-0.1399,-0.14,-0.1332,-0.1335,-0.1395,-0.1405,-0.1352,0,0,0,0,0,0,-0.0643,-0.0666,-0.0714,-0.0749,-0.0791,-0.0867,-0.092,-0.0999,-0.1008,-0.1129,-0.114,-0.1229,-0.1251,-0.1335,-0.128,-0.1288,-0.1261,-0.1382,-0.1379,-0.1389,-0.1398,-0.1407,-0.1355,0,0,0,0,0]},{"header":{"parameterUnit":"m.s-1","parameterCategory":2,"la1":30.2991,"la2":30.254,"lo1":-89.0895,"lo2":-89.0444,"dy":0.0017,"dx":0.0017,"nx":28,"ny":28,"refTime":"2025-01-20T03:00:00:Z","depth":"4","parameterNumber":3,"parameterNumberName":"V-component_of_CURRENTS"},"data":[0,0,0,0,0,0,0,0,0,0,0,0,0,0,0,0,0,0,0,0,0,0,0,0,0,0,0,0,0,0,0,0,0,0,0,0,0,0,0,0,0,0,0,0,0,0,0,0,0,0,0,0,0,0,0,0,0,0,0.0113,0.0114,0,0.0235,0.0237,0.0239,0.0314,0.0314,0.0314,0.0314,0.0448,0.0451,0.0455,0,0,0,0,0,0,0,0,0,0,0,0,0,0.0086,0.0085,0.0112,0.0114,0.0115,0.0235,0.0237,0.0239,0.0314,0.0314,0.0314,0.0314,0.0447,0.0451,0.0455,0,0,0,0,0,0,0,0,0,0,0,0,0,0.0145,0.0085,0.0112,0.0164,0.0169,0.0235,0.0237,0.024,0.0314,0.0314,0.0314,0.0314,0.0445,0.0451,0.0456,0.0489,0,0,0.0472,0.0475,0,0,0,0,0,0,0,0,0.0142,0.0147,0.0155,0.016,0.0166,0.0256,0.0277,0.0322,0.0314,0.0263,0.0314,0.0314,0.0382,0.0393,0.0421,0.0495,0.0501,0.0473,0.0476,0.0478,0.048,0,0,0,0,0,0,0,0.0137,0.0143,0.0165,0.0156,0.0163,0.0229,0.0237,0.0287,0.0324,0.0268,0.0272,0.028,0.0386,0.0416,0.0425,0.0503,0.0473,0.0477,0.0481,0.0483,0.0604,0.0604,0,0,0,0,0,0,0.0106,0.0138,0.0161,0.0168,0.0149,0.0229,0.0238,0.023,0.0324,0.0337,0.0279,0.0282,0.0407,0.0419,0.043,0.0452,0.0478,0.0483,0.0486,0.0604,0.0604,0.0604,0,0,0,0,0,0,0.0105,0.0107,0.0156,0.0154,0.0164,0.0228,0.022,0.0233,0.0259,0.0332,0.0346,0.0291,0.0407,0.0422,0.0475,0.0459,0.0486,0.049,0.0604,0.0604,0.0604,0.0511,0,0,0,0,0,0,0.0103,0.0105,0.0092,0.0151,0.0163,0.0187,0.022,0.0235,0.0261,0.0267,0.0347,0.0359,0.0409,0.0466,0.048,0.0467,0.0495,0.0604,0.0604,0.0604,0.0514,0.0508,0.0503,0,0,0,0,0,0.0102,0.0089,0.009,0.0094,0.0141,0.0186,0.0199,0.0248,0.0261,0.0272,0.0328,0.0357,0.0476,0.0471,0.0487,0.0475,0.0604,0.0604,0.0604,0.0517,0.0509,0.0503,0,0,0,0,0,0,0.0087,0.0097,0.01,0.0093,0.0128,0.0197,0.0212,0.024,0.0294,0.0297,0.0365,0.0383,0.0419,0.0465,0.0458,0.0511,0.0542,0.0545,0.047,0.0463,0.0457,0.0441,0.0499,0,0,0,0,0,0.0069,0.0051,0.0086,0.0081,0.0092,0.0147,0.017,0.02,0.0253,0.0277,0.0331,0.0387,0.0434,0.0461,0.0512,0.0546,0.0569,0.0548,0.0542,0.0537,0.0536,0.055,0.0544,0.0604,0.0604,0.0604,0,0,0.0062,0.0065,0.0056,0.0075,0.0106,0.0124,0.0163,0.019,0.0209,0.0282,0.0324,0.0369,0.0439,0.0475,0.0495,0.051,0.0531,0.0537,0.0531,0.0534,0.0549,0.0543,0.0538,0.0605,0.0605,0.0604,0,0,0.005,0.0039,0.0025,0.0045,0.0073,0.0105,0.0105,0.0162,0.0187,0.023,0.0281,0.0318,0.0398,0.0439,0.0471,0.0466,0.0498,0.0478,0.0438,0.0451,0.0446,0.0441,0.045,0.0447,0.0476,0.0476,0.0476,0,0.0043,0.0027,0.0035,0.0037,0.0049,0.0088,0.0095,0.0128,0.0196,0.0211,0.0229,0.0328,0.0379,0.0421,0.0419,0.0451,0.0462,0.0454,0.0441,0.0437,0.0434,0.0444,0.0442,0.0472,0.0472,0.0473,0.0473,0,0.0029,0.0017,0.0016,0.0016,0.0031,0.0044,0.0078,0.0096,0.0121,0.0157,0.0196,0.0265,0.032,0.0337,0.0379,0.0385,0.0401,0.0426,0.0449,0.0422,0.0435,0.0434,0.0465,0.0467,0.0468,0.0469,0,0,0.002,0.0004,0.0004,-0.0004,0.0017,0.0031,0.0042,0.007,0.0072,0.0124,0.0137,0.0208,0.0232,0.027,0.0318,0.0333,0.0317,0.0363,0.0366,0.0356,0.0336,0.035,0.0352,0.0332,0.0332,0.0332,0.0349,0,0.0012,-0.0007,-0.0009,-0.0015,-0.0016,0.0002,0.0008,0.0032,0.0058,0.0078,0.0131,0.0164,0.0211,0.0226,0.0246,0.0308,0.0313,0.031,0.038,0.0382,0.0384,0.0351,0.0331,0.0348,0.0348,0.0348,0.0348,0,0.0011,-0.0007,-0.0025,-0.0044,-0.0044,-0.0046,-0.0045,-0.0034,-0.0004,0.0013,0.0045,0.0089,0.013,0.0164,0.0235,0.0228,0.0269,0.031,0.0312,0.0359,0.0395,0.0389,0.0348,0.0348,0.0348,0.0348,0.0348,0,0.001,-0.0012,-0.0036,-0.0038,-0.0052,-0.0063,-0.0069,-0.0053,-0.0056,-0.003,-0.0033,0.0027,0.0051,0.0112,0.0206,0.0211,0.0278,0.0299,0.0348,0.0349,0.0372,0.0377,0.0327,0.0327,0.0327,0.0327,0.0327,0,0.0013,0.0005,-0.0045,-0.0053,-0.0085,-0.0088,-0.0115,-0.0108,-0.0113,-0.0127,-0.0072,-0.0068,0.0035,0.0094,0.0176,0.0264,0.0255,0.0332,0.0352,0.0333,0.0333,0.0371,0.0376,0.0328,0.0328,0.0328,0.0328,0,0.0049,0.0011,-0.0012,-0.006,-0.0082,-0.0099,-0.0151,-0.0174,-0.0174,-0.0194,-0.0193,-0.0143,-0.0068,0.0045,0.0151,0.0221,0.0309,0.0341,0.0306,0.0326,0.0374,0.0374,0.0381,0.0381,0.0382,0.0382,0.0382,0,0.0071,0.0058,-0.0016,-0.0052,-0.0073,-0.0118,-0.0161,-0.0193,-0.0225,-0.0239,-0.0254,-0.0195,-0.0144,0.0003,0.0135,0.0289,0.0317,0.0354,0.0366,0.0359,0.0378,0.0378,0.0377,0.0383,0.0383,0.0383,0.0383,0,0.0128,0.0096,0.0072,-0.0017,-0.0079,-0.0162,-0.0228,-0.0266,-0.0312,-0.0307,-0.0321,-0.0241,-0.0153,-0.0015,0.0112,0.0227,0.0328,0.0359,0.0359,0.037,0.0363,0.0381,0.038,0.0385,0.0385,0.0385,0.0385,0,0.0179,0.0178,0.0118,0.0044,-0.0063,-0.0196,-0.0238,-0.0308,-0.0351,-0.0379,-0.0378,-0.0282,-0.0221,-0.0047,0.0072,0.019,0.0217,0.0246,0.0252,0.0252,0.0225,0.0198,0.0175,0,0,0,0,0,0.0236,0.0233,0.0173,0.0052,-0.0079,-0.0158,-0.028,-0.0327,-0.0381,-0.0404,-0.04,-0.0321,-0.0158,-0.0081,0.0034,0.0102,0.0257,0.0243,0.0297,0.0394,0.0392,0.0386,0,0,0,0,0,0,0.0271,0.0252,0.0212,0.0056,-0.0046,-0.0205,-0.0302,-0.0353,-0.0375,-0.0397,-0.0315,-0.0277,-0.0112,-0.0213,0.0047,0.0085,0.0134,0.0326,0.0328,0.0396,0.0394,0.0392,0.0385,0,0,0,0,0]}]]